TimeMDT,TemperatureF,Dew PointF,Humidity,Sea Level PressureIn,VisibilityMPH,Wind Direction,Wind SpeedMPH,Gust SpeedMPH,PrecipitationIn,Events,Conditions,WindDirDegrees,DateUTC
12:15 AM,54.0,52.0,93,30.17,10.0,ESE,4.6,-,N/A,,Clear,120,2013-09-14 06:15:00
12:35 AM,54.0,51.8,92,30.17,10.0,Calm,Calm,-,N/A,,Clear,0,2013-09-14 06:35:00
12:55 AM,53.2,51.1,92,30.17,10.0,East,4.6,-,N/A,,Clear,100,2013-09-14 06:55:00
1:15 AM,53.2,51.3,93,30.17,10.0,ESE,3.5,-,N/A,,Scattered Clouds,110,2013-09-14 07:15:00
1:35 AM,52.3,50.7,94,30.17,10.0,NE,3.5,-,N/A,,Mostly Cloudy,50,2013-09-14 07:35:00
1:55 AM,53.6,51.8,94,30.16,10.0,Calm,Calm,-,N/A,Thunderstorm,Overcast,0,2013-09-14 07:55:00
2:15 AM,54.5,52.3,92,30.16,10.0,ESE,3.5,-,N/A,,Overcast,120,2013-09-14 08:15:00
2:35 AM,54.7,52.2,91,30.15,10.0,ESE,4.6,-,N/A,,Mostly Cloudy,110,2013-09-14 08:35:00
2:55 AM,54.3,51.8,91,30.16,10.0,West,5.8,-,N/A,Thunderstorm,Mostly Cloudy,260,2013-09-14 08:55:00
3:15 AM,54.0,52.2,94,30.16,10.0,Calm,Calm,-,N/A,,Overcast,0,2013-09-14 09:15:00
3:35 AM,54.1,52.2,93,30.16,10.0,Calm,Calm,-,N/A,Thunderstorm,Overcast,0,2013-09-14 09:35:00
3:55 AM,54.0,52.2,94,30.16,10.0,SW,3.5,-,N/A,,Overcast,230,2013-09-14 09:55:00
4:15 AM,54.0,52.3,94,30.15,10.0,ESE,3.5,-,N/A,Rain,Light Rain,110,2013-09-14 10:15:00
4:35 AM,53.8,52.2,94,30.15,7.0,Calm,Calm,-,N/A,,Overcast,0,2013-09-14 10:35:00
4:55 AM,53.6,51.8,94,30.15,10.0,Calm,Calm,-,N/A,,Overcast,0,2013-09-14 10:55:00
5:15 AM,53.6,52.0,94,30.16,7.0,Calm,Calm,-,N/A,,Overcast,0,2013-09-14 11:15:00
5:35 AM,53.6,52.0,94,30.16,7.0,Calm,Calm,-,N/A,,Overcast,0,2013-09-14 11:35:00
5:55 AM,54.0,52.7,95,30.17,10.0,Calm,Calm,-,N/A,,Overcast,0,2013-09-14 11:55:00
6:15 AM,54.5,53.1,95,30.17,10.0,Calm,Calm,-,N/A,,Overcast,0,2013-09-14 12:15:00
6:35 AM,54.9,53.2,94,30.18,10.0,WSW,3.5,-,N/A,Rain,Rain,250,2013-09-14 12:35:00
6:55 AM,54.9,53.1,94,30.17,7.0,Calm,Calm,-,0.01,,Drizzle,0,2013-09-14 12:55:00
7:15 AM,54.9,53.4,95,30.19,5.0,Calm,Calm,-,N/A,,Drizzle,0,2013-09-14 13:15:00
7:35 AM,55.4,53.6,94,30.19,7.0,Calm,Calm,-,0.01,Rain,Light Rain,0,2013-09-14 13:35:00
7:55 AM,55.6,54.1,95,30.19,7.0,Calm,Calm,-,0.01,,Light Drizzle,0,2013-09-14 13:55:00
8:15 AM,55.8,53.8,93,30.19,10.0,SE,3.5,-,N/A,Rain,Light Rain,130,2013-09-14 14:15:00
8:35 AM,56.3,54.5,94,30.19,10.0,SSE,4.6,-,0.01,Rain,Light Rain,150,2013-09-14 14:35:00
8:55 AM,57.0,54.5,91,30.18,10.0,SE,4.6,-,0.01,,Drizzle,140,2013-09-14 14:55:00
9:35 AM,57.9,54.7,89,30.19,10.0,South,6.9,-,N/A,,Overcast,170,2013-09-14 15:35:00
9:55 AM,59.0,55.0,87,30.19,10.0,SSE,9.2,-,N/A,Rain,Light Rain,160,2013-09-14 15:55:00
10:15 AM,60.8,55.6,83,30.19,10.0,South,10.4,-,N/A,,Mostly Cloudy,170,2013-09-14 16:15:00
10:35 AM,62.2,54.9,77,30.19,10.0,SSE,9.2,-,N/A,,Overcast,160,2013-09-14 16:35:00
10:55 AM,60.3,54.5,81,30.20,10.0,South,9.2,-,N/A,,Overcast,180,2013-09-14 16:55:00
11:15 AM,59.9,53.4,79,30.19,10.0,South,9.2,-,N/A,,Overcast,170,2013-09-14 17:15:00
11:35 AM,60.8,53.2,76,30.19,10.0,South,6.9,-,N/A,,Overcast,180,2013-09-14 17:35:00
11:55 AM,61.7,53.6,75,30.19,10.0,SSW,6.9,-,N/A,,Overcast,200,2013-09-14 17:55:00
12:15 PM,61.7,54.1,76,30.18,10.0,South,9.2,-,N/A,Rain,Light Rain,170,2013-09-14 18:15:00
12:35 PM,62.4,53.1,71,30.18,10.0,South,9.2,-,N/A,,Overcast,170,2013-09-14 18:35:00
12:55 PM,63.7,53.6,70,30.17,10.0,South,9.2,-,N/A,,Overcast,170,2013-09-14 18:55:00
1:15 PM,65.7,53.4,65,30.16,10.0,South,8.1,-,N/A,,Scattered Clouds,170,2013-09-14 19:15:00
1:35 PM,65.7,53.6,65,30.16,10.0,South,10.4,-,N/A,,Clear,170,2013-09-14 19:35:00
1:55 PM,66.2,52.7,62,30.15,10.0,South,9.2,-,N/A,,Clear,190,2013-09-14 19:55:00
2:15 PM,67.3,52.3,59,30.14,10.0,SSE,8.1,-,N/A,,Scattered Clouds,150,2013-09-14 20:15:00
2:35 PM,67.1,53.1,61,30.13,10.0,South,15.0,18.4,N/A,,Mostly Cloudy,190,2013-09-14 20:35:00
2:55 PM,66.2,54.0,65,30.13,10.0,SSE,9.2,-,N/A,,Mostly Cloudy,160,2013-09-14 20:55:00
3:15 PM,66.4,54.1,65,30.11,10.0,South,11.5,-,N/A,Rain,Light Rain,170,2013-09-14 21:15:00
3:35 PM,66.4,53.4,63,30.11,10.0,South,8.1,-,N/A,,Mostly Cloudy,180,2013-09-14 21:35:00
3:55 PM,68.2,53.2,59,30.11,10.0,SSE,10.4,-,N/A,,Mostly Cloudy,160,2013-09-14 21:55:00
4:15 PM,69.3,53.6,57,30.10,10.0,South,12.7,-,N/A,,Mostly Cloudy,170,2013-09-14 22:15:00
4:35 PM,69.8,54.1,57,30.10,10.0,South,12.7,17.3,N/A,,Mostly Cloudy,180,2013-09-14 22:35:00
4:55 PM,66.7,54.3,64,30.11,10.0,South,10.4,-,N/A,Thunderstorm,Scattered Clouds,180,2013-09-14 22:55:00
5:15 PM,66.6,54.3,65,30.11,10.0,South,8.1,-,N/A,Thunderstorm,Mostly Cloudy,180,2013-09-14 23:15:00
5:35 PM,66.4,53.8,64,30.12,10.0,South,8.1,-,N/A,Rain-Thunderstorm,Light Thunderstorms and Rain,180,2013-09-14 23:35:00
5:55 PM,62.6,56.5,80,30.12,10.0,WSW,10.4,-,N/A,Rain-Thunderstorm,Light Thunderstorms and Rain,240,2013-09-14 23:55:00
6:15 PM,59.7,54.0,81,30.13,2.0,SW,12.7,20.7,0.11,Rain-Thunderstorm,Heavy Thunderstorms and Rain,220,2013-09-15 00:15:00
6:35 PM,57.4,48.6,72,30.12,5.0,ESE,12.7,-,0.31,Rain-Thunderstorm,Light Thunderstorms and Rain,110,2013-09-15 00:35:00
6:55 PM,59.0,53.6,82,30.12,10.0,East,8.1,-,0.31,,Scattered Clouds,90,2013-09-15 00:55:00
7:15 PM,59.2,54.0,83,30.11,10.0,ESE,6.9,-,N/A,Thunderstorm,Clear,110,2013-09-15 01:15:00
7:35 PM,59.0,55.6,88,30.12,10.0,ESE,4.6,-,N/A,,Mostly Cloudy,110,2013-09-15 01:35:00
7:55 PM,59.9,56.3,88,30.13,10.0,ESE,6.9,-,N/A,Thunderstorm,Mostly Cloudy,120,2013-09-15 01:55:00
8:15 PM,60.3,55.0,83,30.13,10.0,SE,8.1,-,N/A,Thunderstorm,Mostly Cloudy,130,2013-09-15 02:15:00
8:35 PM,60.3,55.8,85,30.14,10.0,SE,8.1,-,N/A,Thunderstorm,Mostly Cloudy,140,2013-09-15 02:35:00
8:55 PM,60.1,55.6,85,30.15,10.0,SE,9.2,-,N/A,,Scattered Clouds,140,2013-09-15 02:55:00
9:15 PM,59.5,55.4,86,30.16,10.0,SE,9.2,-,N/A,,Scattered Clouds,140,2013-09-15 03:15:00
9:35 PM,59.0,55.0,87,30.16,10.0,SE,9.2,-,N/A,,Scattered Clouds,140,2013-09-15 03:35:00
9:55 PM,58.5,54.9,88,30.16,10.0,SSE,8.1,-,N/A,Thunderstorm,Clear,160,2013-09-15 03:55:00
10:15 PM,57.4,54.5,90,30.16,10.0,SSE,6.9,-,N/A,Thunderstorm,Clear,150,2013-09-15 04:15:00
10:35 PM,57.0,54.3,91,30.16,10.0,SE,5.8,-,N/A,Thunderstorm,Thunderstorm,140,2013-09-15 04:35:00
10:55 PM,57.2,54.7,91,30.16,10.0,South,6.9,-,N/A,,Mostly Cloudy,170,2013-09-15 04:55:00
11:15 PM,57.4,54.9,91,30.16,10.0,SSE,5.8,-,N/A,Rain-Thunderstorm,Light Thunderstorms and Rain,150,2013-09-15 05:15:00
11:35 PM,57.4,55.0,92,30.17,10.0,SE,4.6,-,0.01,Rain-Thunderstorm,Light Thunderstorms and Rain,140,2013-09-15 05:35:00
11:55 PM,57.2,55.2,93,30.16,10.0,Calm,Calm,-,0.02,Rain-Thunderstorm,Light Thunderstorms and Rain,0,2013-09-15 05:55:00